Location: *
(46.1200°N, 11.2700°E)
Time: 04:05:23
(UTC+00:00)

Resurs 1-3 - Pass Details

Date: 02 March 2021
Orbit: 629 x 633 km, 97.9° (Epoch: 13 April)

Event Time Altitude Azimuth Distance (km) Brightness Sun altitude
Exits shadow 19:18:00 57° 23° (NNE) 747 3.8 -24.0°
Drops below altitude 10° 19:21:42 10° 352° (N) 2,027 6.5 -24.6°
Sets 19:23:55 0° 350° (N) 2,940 7.4 -25.0°
